This demonstration page uses our WeatherBlox Daily Observations layout. Learn more.

Left ArrowRight Arrow

38.83388, -104.82136

Hourly Observations for May 28, 2022

Temp ( °F °C ) Dew Point ( °F °C ) Humidity (%) Winds ( mph kmh ) Pressure ( in mb ) Visibility ( mi km ) Precip ( " mm )
12:58 am 00:58 Clear 65 18.3 23 -5.1 20 20 Calm 29.69 1005 10 16 0.00 0.00
1:58 am 01:58 Clear 67 19.2 19 -7.2 16 16 WNW 6 9 29.68 1005 10 16 0.00 0.00
2:58 am 02:58 Clear 70 20.9 17 -8.6 13 13 WNW 5 7 29.65 1004 10 16 0.00 0.00
3:58 am 03:58 Clear 65 18.6 18 -7.7 16 16 E 3 6 29.65 1004 10 16 0.00 0.00
4:58 am 04:58 Clear 70 21.1 15 -9.4 12 12 NW 8 13 29.62 1003 10 16 0.00 0.00
5:58 am 05:58 Mostly Cloudy 70 21 15 -9.5 12 12 Calm 29.61 1003 10 16 0.00 0.00
6:58 am 06:58 Cloudy 68 19.8 18 -7.6 15 15 Calm 29.62 1003 10 16 0.00 0.00
7:58 am 07:58 Cloudy 69 20.7 18 -7.8 14 14 W 5 7 29.54 1000 10 16 0.00 0.00
8:58 am 08:58 Mostly Cloudy 69 20.4 22 -5.5 17 17 Calm 29.63 1003 10 16 0.00 0.00
9:59 am 09:59 undefined N/A N/A N/A undefined N/A N/A N/A 0.00 0.00
11:26 am 11:26 undefined 75 24 19 -7 12 12 S 17 28 29.60 1002 10 16 0.00 0.00
11:31 am 11:31 undefined 75 24 18 -8 11 11 SE 13 20 29.59 1002 10 16 0.00 0.00
11:42 am 11:42 Mostly Sunny 75 24 19 -7 12 12 S 16 26 29.59 1002 10 16 0.00 0.00
11:58 am 11:58 Mostly Sunny 76 24.4 18 -8 11 11 S 17 28 29.58 1002 10 16 0.00 0.00
11:59 am 11:59 Mostly Sunny 77 25 18 -8 11 11 S 18 30 29.56 1001 10 16 0.00 0.00
12:11 pm 12:11 Sunny 77 25 21 -6 12 12 SE 17 28 29.55 1001 10 16 0.00 0.00
12:34 pm 12:34 Sunny 77 25 18 -8 11 11 ESE 15 24 29.57 1001 10 16 0.00 0.00
12:58 pm 12:58 Sunny 79 26 20 -6.8 11 11 N 5 7 29.58 1002 10 16 0.00 0.00
1:12 pm 13:12 Sunny 77 25 18 -8 11 11 S 17 28 29.55 1001 10 16 0.00 0.00
1:32 pm 13:32 Mostly Sunny 77 25 19 -7 11 11 S 15 24 29.53 1000 10 16 0.00 0.00
1:46 pm 13:46 Mostly Sunny 77 25 19 -7 11 11 SSE 18 30 29.52 1000 10 16 0.00 0.00
1:58 pm 13:58 Mostly Sunny 77 25.1 21 -6.3 12 12 SSE 20 31 29.52 1000 10 16 0.00 0.00
2:58 pm 14:58 Cloudy 79 26.2 15 -9.2 9 9 SE 18 30 29.52 1000 10 16 0.00 0.00
3:43 pm 15:43 Mostly Cloudy 79 26 16 -9 9 9 S 14 22 29.49 999 10 16 0.00 0.00
3:58 pm 15:58 Mostly Cloudy 80 26.5 16 -9 9 9 SE 15 24 29.48 998 10 16 0.00 0.00
4:58 pm 16:58 Sunny 79 25.9 12 -10.9 8 8 S 12 19 29.43 997 10 16 0.00 0.00
5:58 pm 17:58 Mostly Sunny 77 24.8 13 -10.3 9 9 SSE 9 15 29.37 995 10 16 0.00 0.00
6:58 pm 18:58 Sunny 75 24 12 -10.9 9 9 S 8 13 29.35 994 10 16 0.00 0.00
7:58 pm 19:58 Mostly Sunny 72 22.3 19 -7.5 13 13 Calm 29.32 993 10 16 0.00 0.00
8:58 pm 20:58 Clear 70 21.3 19 -7.3 14 14 W 5 7 29.32 993 10 16 0.00 0.00

Powered by AerisWeather